This is the latest recevied weather packets stored in our database for station/object KC8JWT. If no packets are shown the sender has not sent any weather packets the latest 10 day(s).
| Time | Temp. | Humidity | Pressure | Rain* | Wind** | Luminosity | Snow |
|---|---|---|---|---|---|---|---|
| 1777599379 | 6.11° C | 95% | 1015.8 hPa | 0 mm | - | 0 W/m² | - |
| 1777599076 | 6.11° C | 94% | 1015.8 hPa | 0 mm | - | 0 W/m² | - |
| 1777598774 | 6.11° C | 94% | 1015.8 hPa | 0 mm | - | 0 W/m² | - |
| 1777598469 | 6.11° C | 94% | 1015.5 hPa | 0 mm | - | 0 W/m² | - |
| 1777598169 | 6.11° C | 93% | 1015.6 hPa | 0 mm | - | 0 W/m² | - |
| 1777597863 | 6.67° C | 92% | 1015.6 hPa | 0 mm | - | 0 W/m² | - |
| 1777597563 | 6.67° C | 91% | 1015.3 hPa | 0 mm | - | 0 W/m² | - |
| 1777597258 | 6.11° C | 90% | 1015.3 hPa | 0 mm | - | 0 W/m² | - |
| 1777596953 | 6.67° C | 89% | 1015.2 hPa | 0 mm | - | 0 W/m² | - |
| 1777596651 | 6.67° C | 89% | 1015.2 hPa | 0 mm | - | 0 W/m² | - |
| 1777596348 | 7.22° C | 88% | 1015 hPa | 0 mm | - | 0 W/m² | - |
| 1777596045 | 7.78° C | 88% | 1014.9 hPa | 0 mm | - | 0 W/m² | - |
| 1777595745 | 7.78° C | 87% | 1014.8 hPa | 0 mm | - | 0 W/m² | - |
| 1777595441 | 8.33° C | 86% | 1014.8 hPa | 0 mm | - | 0 W/m² | - |
| 1777595137 | 8.89° C | 85% | 1014.8 hPa | 0 mm | - | 0 W/m² | - |
| 1777594833 | 9.44° C | 85% | 1014.8 hPa | 0 mm | - | 2 W/m² | - |
| 1777594530 | 10° C | 83% | 1014.8 hPa | 0 mm | - | 3 W/m² | - |
| 1777594226 | 10° C | 82% | 1014.8 hPa | 0 mm | - | 7 W/m² | - |
| 1777593922 | 10.56° C | 80% | 1014.9 hPa | 0 mm | - | 10 W/m² | - |
| 1777593619 | 11.11° C | 77% | 1014.7 hPa | 0 mm | - | 13 W/m² | - |
| 1777593314 | 11.67° C | 74% | 1014.7 hPa | 0 mm | - | 18 W/m² | - |
| 1777593009 | 11.67° C | 74% | 1014.9 hPa | 0 mm | - | 20 W/m² | - |
| 1777592703 | 12.22° C | 73% | 1014.8 hPa | 0 mm | - | 26 W/m² | - |
| 1777592399 | 12.78° C | 74% | 1014.7 hPa | 0 mm | - | 33 W/m² | - |
| 1777592094 | 13.33° C | 70% | 1014.7 hPa | 0 mm | - | 34 W/m² | - |
* Rain latest hour (hover to see other rain measurements)
** Current wind speed in m/s (hover to see current wind gust speed)